Retour au catalogue

STARLINK-32186

ActifCommunicationsVLEO
NORAD 60412·PAYLOAD·🇺🇸 United States

Lancé Aug 10, 2024 depuis Cape Canaveral Space Force Station

Loading…

Prochains Passages (prochaines 24 heures)

TLE

FraisSource: CelesTrak SupGP

Époque: Sep 15, 2026, 03:22 UTC

1 60412C 24141Q   26258.14076389 -.00027818  00000+0 -82186-3 0  2589
2 60412  53.1566  78.5219 0001233  88.7048 286.3747 15.34405019    17

Suivez STARLINK-32186 en temps réel avec AllMySat

Download on the App Store